GW6957 Weather Reports


time (UTC)temp
C
wind
direction
speed
KPH
gust
KPH
rain 1hr
cm
rain 24hr
cm
rain mn
cm
humidity
%
barometer
mb
20260504231917 21 15 3.2 3.2 0.00 0.00 0.38 63 1009.5
20260504231417 21 194 1.6 3.2 0.00 0.00 0.38 64 1009.5
20260504230917 22 84 1.6 3.2 0.00 0.00 0.38 60 1009.5
20260504230418 22 222 0.0 0.0 0.00 0.00 0.38 61 1009.5
20260504225917 23 133 3.2 3.2 0.00 0.00 0.38 49 1009.8
20260504225418 23 168 3.2 3.2 0.00 0.00 0.38 53 1009.8
20260504224917 23 206 0.0 1.6 0.00 0.00 0.38 47 1009.8
20260504224419 23 162 0.0 3.2 0.00 0.00 0.38 52 1009.8
20260504223917 24 236 0.0 0.0 0.00 0.00 0.38 45 1009.8
20260504223417 24 132 9.7 12.9 0.00 0.00 0.38 43 1009.8
20260504222917 25 113 0.0 0.0 0.00 0.00 0.38 45 1009.8
20260504222418 25 36 4.8 6.4 0.00 0.00 0.38 43 1009.8
20260504221919 25 119 4.8 4.8 0.00 0.00 0.38 45 1009.8
20260504221418 25 141 9.7 12.9 0.00 0.00 0.38 43 1009.8
20260504220917 25 95 8.0 9.7 0.00 0.00 0.38 44 1010.5
20260504220417 25 182 0.0 0.0 0.00 0.00 0.38 46 1010.5
20260504215918 25 160 3.2 3.2 0.00 0.00 0.38 42 1009.8
20260504215418 25 254 1.6 4.8 0.00 0.00 0.38 42 1009.8
20260504214917 26 221 3.2 8.0 0.00 0.00 0.38 42 1009.8
20260504214417 26 94 1.6 3.2 0.00 0.00 0.38 41 1009.8
20260504213918 26 115 6.4 8.0 0.00 0.00 0.38 40 1009.8
20260504213417 26 86 4.8 8.0 0.00 0.00 0.38 41 1009.8
20260504212918 26 96 8.0 8.0 0.00 0.00 0.38 39 1009.8
20260504212418 26 74 4.8 8.0 0.00 0.00 0.38 39 1009.8
20260504211919 26 110 11.3 14.5 0.00 0.00 0.38 39 1009.8
20260504211418 27 217 1.6 6.4 0.00 0.00 0.38 41 1009.8
20260504210917 26 70 6.4 12.9 0.00 0.00 0.38 40 1010.5
20260504210417 25 118 11.3 12.9 0.00 0.00 0.38 41 1010.5
20260504205917 26 149 4.8 4.8 0.00 0.00 0.38 41 1010.5
20260504205418 25 197 6.4 14.5 0.00 0.00 0.38 44 1010.5
20260504204918 26 108 4.8 6.4 0.00 0.00 0.38 42 1010.5
20260504204418 26 78 16.1 20.9 0.00 0.00 0.38 42 1010.5
20260504203918 25 127 6.4 9.7 0.00 0.00 0.38 43 1010.5
20260504203418 26 117 6.4 9.7 0.00 0.00 0.38 43 1010.5
20260504202917 26 119 6.4 9.7 0.00 0.00 0.38 42 1010.5
20260504202422 26 359 6.4 9.7 0.00 0.00 0.38 41 1010.8
20260504201918 26 201 8.0 16.1 0.00 0.00 0.38 41 1010.8
20260504201418 26 147 6.4 6.4 0.00 0.00 0.38 42 1010.8
20260504200918 26 141 11.3 12.9 0.00 0.00 0.38 43 1010.8
20260504200418 26 201 8.0 9.7 0.00 0.00 0.38 43 1010.8
20260504195917 26 82 8.0 9.7 0.00 0.00 0.38 41 1011.2
20260504195418 26 103 8.0 12.9 0.00 0.00 0.38 41 1011.2
20260504194918 26 194 3.2 3.2 0.00 0.00 0.38 42 1011.2
20260504194419 25 137 8.0 9.7 0.00 0.00 0.38 43 1011.2
20260504193917 26 114 9.7 19.3 0.00 0.00 0.38 42 1011.2
20260504193418 25 143 8.0 8.0 0.00 0.00 0.38 43 1011.2
20260504192918 25 60 8.0 14.5 0.00 0.00 0.38 43 1011.2
20260504192420 26 91 11.3 16.1 0.00 0.00 0.38 43 1011.5
20260504191918 26 122 4.8 4.8 0.00 0.00 0.38 43 1011.5
20260504191418 26 119 3.2 3.2 0.00 0.00 0.38 42 1011.5
20260504190917 25 113 12.9 19.3 0.00 0.00 0.38 43 1011.2
20260504190418 26 248 11.3 17.7 0.00 0.00 0.38 42 1011.2
20260504185917 26 106 6.4 6.4 0.00 0.00 0.38 41 1011.2
20260504185417 26 119 6.4 8.0 0.00 0.00 0.38 43 1011.2
20260504184917 27 195 3.2 4.8 0.00 0.00 0.38 43 1011.5
20260504184417 27 289 1.6 3.2 0.00 0.00 0.38 40 1011.5
20260504183917 26 332 1.6 1.6 0.00 0.00 0.38 43 1011.5
20260504183418 25 77 1.6 3.2 0.00 0.00 0.38 43 1011.5
20260504182917 25 101 8.0 8.0 0.00 0.00 0.38 45 1011.5
20260504182418 26 75 4.8 6.4 0.00 0.00 0.38 45 1011.5
20260504181918 25 237 3.2 4.8 0.00 0.00 0.38 43 1011.5
20260504181417 25 134 11.3 12.9 0.00 0.00 0.38 45 1011.5
20260504180918 25 276 3.2 3.2 0.00 0.00 0.38 46 1011.5
20260504180418 24 132 6.4 6.4 0.00 0.00 0.38 48 1011.5
20260504175917 24 135 6.4 8.0 0.00 0.00 0.38 49 1011.5
20260504175418 25 78 3.2 3.2 0.00 0.00 0.38 52 1011.5
20260504174918 23 122 6.4 6.4 0.00 0.00 0.38 47 1011.9
20260504174420 25 72 1.6 1.6 0.00 0.00 0.38 46 1011.9
20260504173918 25 266 3.2 3.2 0.00 0.00 0.38 48 1011.9
20260504173418 22 124 3.2 4.8 0.00 0.00 0.38 51 1011.9
20260504172917 22 194 4.8 6.4 0.00 0.00 0.38 50 1011.9
20260504172418 21 115 11.3 16.1 0.00 0.00 0.38 52 1011.9
20260504171917 22 303 3.2 8.0 0.00 0.00 0.38 52 1011.9
20260504171418 22 175 3.2 4.8 0.00 0.00 0.38 51 1011.9
20260504170918 22 150 3.2 4.8 0.00 0.00 0.38 54 1011.9
20260504170417 22 127 8.0 8.0 0.00 0.00 0.38 59 1011.9
20260504160424 14 217 0.0 0.0 0.03 0.00 0.38 93 1013.9
20260504150918 15 214 1.6 1.6 0.00 0.00 0.38 84 1014.2
20260504150418 15 222 1.6 1.6 0.00 0.00 0.38 80 1014.2
20260504140919 14 147 4.8 4.8 0.00 0.00 0.38 80 1014.9
20260504140420 14 265 1.6 6.4 0.00 0.00 0.38 84 1014.9
20260504130420 10 77 3.2 3.2 0.03 0.00 0.38 99 1015.2
20260504110418 7 257 0.0 0.0 0.00 0.00 0.00 94 1014.2
20260504100418 6 232 0.0 0.0 0.00 0.00 0.00 96 1013.9
20260504081918 7 205 0.0 1.6 0.00 0.00 0.00 91 1014.2
20260504081417 7 222 0.0 0.0 0.00 0.00 0.00 90 1014.2
20260504080918 7 204 0.0 0.0 0.00 0.00 0.00 90 1014.6
20260504080418 7 177 1.6 1.6 0.00 0.00 0.00 91 1014.6
20260504050417 6 213 0.0 1.6 0.00 0.00 0.00 85 1016.3
20260504045917 6 239 0.0 0.0 0.00 0.00 0.00 85 1016.3
20260504045418 6 211 0.0 0.0 0.00 0.00 0.00 86 1016.3
20260504044917 6 212 0.0 0.0 0.00 0.00 0.00 86 1016.3
20260504044417 6 215 0.0 0.0 0.00 0.00 0.00 86 1016.3
20260504043917 6 218 0.0 0.0 0.00 0.00 0.00 86 1016.3
20260504043418 6 225 0.0 0.0 0.00 0.00 0.00 86 1016.3
20260504042917 6 206 0.0 0.0 0.00 0.00 0.00 86 1016.3
20260504042418 6 216 0.0 0.0 0.00 0.00 0.00 87 1016.6
20260504041918 6 214 0.0 0.0 0.00 0.00 0.00 85 1016.6
20260504041417 6 204 0.0 0.0 0.00 0.00 0.00 86 1016.6
20260504040918 6 207 0.0 0.0 0.00 0.00 0.00 85 1016.3
20260504040418 6 198 0.0 0.0 0.00 0.00 0.00 84 1016.3
20260504035918 6 202 0.0 0.0 0.00 0.00 0.00 86 1016.6
20260504035418 6 199 0.0 0.0 0.00 0.00 0.00 84 1016.6
20260504034917 6 201 0.0 0.0 0.00 0.00 0.00 85 1016.6
20260504034418 5 220 0.0 0.0 0.00 0.00 0.00 86 1016.6
20260504033917 5 223 0.0 0.0 0.00 0.00 0.00 85 1016.6
20260504033418 5 215 0.0 0.0 0.00 0.00 0.00 86 1016.3
20260504032917 5 217 0.0 0.0 0.00 0.00 0.00 85 1016.3
20260504032417 5 215 0.0 0.0 0.00 0.00 0.00 86 1016.3
20260504031919 5 220 0.0 0.0 0.00 0.00 0.00 85 1016.3
20260504031418 6 204 0.0 0.0 0.00 0.00 0.00 85 1016.3
20260504030917 6 213 0.0 0.0 0.00 0.00 0.00 84 1015.9
20260504030417 6 209 0.0 0.0 0.00 0.00 0.00 83 1015.9
20260504025917 6 221 0.0 0.0 0.00 0.00 0.00 83 1015.9
20260504025417 6 211 0.0 0.0 0.00 0.00 0.00 83 1015.9
20260504024918 6 206 0.0 0.0 0.00 0.00 0.00 82 1015.9
20260504024417 6 210 0.0 0.0 0.00 0.00 0.00 82 1015.9
20260504023918 6 211 0.0 0.0 0.00 0.00 0.00 81 1015.9
20260504023418 6 228 0.0 0.0 0.00 0.00 0.00 79 1015.9
20260504022917 6 194 0.0 0.0 0.00 0.00 0.00 80 1015.9
20260504022417 6 230 0.0 0.0 0.00 0.00 0.00 78 1015.2
20260504021919 7 205 0.0 0.0 0.00 0.00 0.00 76 1015.2
20260504021418 7 222 0.0 0.0 0.00 0.00 0.00 77 1015.2
20260504020918 7 215 0.0 0.0 0.00 0.00 0.00 77 1015.2
20260504020419 7 213 0.0 0.0 0.00 0.00 0.00 76 1015.2
20260504015917 7 213 0.0 0.0 0.00 0.00 0.00 75 1014.9
20260504015417 7 215 0.0 0.0 0.00 0.00 0.00 74 1014.9
20260504014917 7 206 0.0 0.0 0.00 0.00 0.00 74 1014.9
20260504014419 7 227 0.0 0.0 0.00 0.00 0.00 73 1014.9
20260504013917 8 221 0.0 0.0 0.00 0.00 0.00 71 1014.9
20260504013417 8 212 0.0 0.0 0.00 0.00 0.00 71 1014.9
20260504012918 8 212 0.0 0.0 0.00 0.00 0.00 69 1014.9
20260504012418 8 207 0.0 0.0 0.00 0.00 0.00 70 1014.9
20260504011917 8 209 0.0 0.0 0.00 0.00 0.00 70 1014.9
20260504011417 9 208 0.0 0.0 0.00 0.00 0.00 68 1014.9
20260504010917 9 215 0.0 0.0 0.00 0.00 0.00 67 1014.9
20260504010417 10 205 0.0 0.0 0.00 0.00 0.00 65 1014.9
20260504005917 10 212 0.0 0.0 0.00 0.00 0.00 64 1014.9
20260504005418 10 210 0.0 0.0 0.00 0.00 0.00 62 1014.9
20260504004917 10 211 0.0 0.0 0.00 0.00 0.00 63 1014.9
20260504004418 10 214 0.0 0.0 0.00 0.00 0.00 63 1015.2
20260504003917 10 221 0.0 0.0 0.00 0.00 0.00 60 1015.2
20260504003418 10 217 1.6 1.6 0.00 0.00 0.00 62 1015.2
20260504002920 10 218 0.0 0.0 0.00 0.00 0.00 59 1015.2
20260504002418 10 204 0.0 0.0 0.00 0.00 0.00 59 1015.2
20260504001917 11 196 0.0 0.0 0.00 0.00 0.00 58 1015.2
20260504001417 11 229 0.0 0.0 0.00 0.00 0.00 57 1015.2
20260504000917 11 207 0.0 0.0 0.00 0.00 0.00 59 1015.2
20260504000417 11 208 0.0 0.0 0.00 0.00 0.00 57 1015.2
20260503235917 11 214 0.0 0.0 0.00 0.00 0.00 56 1015.2
20260503235417 12 246 1.6 3.2 0.00 0.00 0.00 53 1015.2
20260503234918 12 255 1.6 1.6 0.00 0.00 0.00 51 1014.9
20260503234417 13 309 1.6 1.6 0.00 0.00 0.00 51 1014.9
20260503233918 13 252 0.0 1.6 0.00 0.00 0.00 48 1014.9
20260503233417 15 254 0.0 0.0 0.00 0.00 0.00 43 1015.2
20260503232917 16 101 3.2 3.2 0.00 0.00 0.00 33 1015.2
20260503232417 16 112 9.7 14.5 0.00 0.00 0.00 32 1015.2